DW4714 Weather Reports


time (UTC)temp
C
wind
direction
speed
KPH
gust
KPH
rain 1hr
cm
rain 24hr
cm
rain mn
cm
humidity
%
barometer
mb
20260506024717 21 248 0.0 3.2 0.00 0.03 0.03 36 1005.4
20260506023717 21 178 0.0 0.0 0.00 0.03 0.03 35 1005.5
20260506022722 21 175 0.0 0.0 0.00 0.03 0.03 34 1005.6
20260506021737 21 203 4.8 11.3 0.00 0.03 0.03 34 1005.4
20260506020737 22 180 3.2 8.0 0.00 0.03 0.03 33 1005.4
20260506015717 22 180 1.6 6.4 0.00 0.03 0.03 32 1005.3
20260506014717 22 158 3.2 11.3 0.00 0.03 0.03 32 1005.3
20260506013737 22 176 0.0 0.0 0.00 0.03 0.03 32 1005.1
20260506012717 22 180 0.0 4.8 0.00 0.03 0.03 33 1005.1
20260506011717 22 193 0.0 0.0 0.00 0.03 0.03 32 1004.9
20260506010717 22 169 0.0 0.0 0.00 0.03 0.03 32 1004.8
20260506005717 22 203 0.0 3.2 0.00 0.03 0.03 32 1004.7
20260506004717 22 194 0.0 0.0 0.00 0.03 0.03 31 1004.5
20260506003717 23 180 0.0 3.2 0.00 0.03 0.03 30 1004.4
20260506002717 23 225 0.0 1.6 0.00 0.03 0.03 30 1004.3
20260506001717 23 203 3.2 8.0 0.00 0.03 0.03 30 1004.3
20260506000717 24 171 0.0 0.0 0.00 0.03 0.03 29 1004.2
20260505235717 24 203 9.7 16.1 0.00 0.03 0.03 28 1004.1
20260505234716 24 203 3.2 8.0 0.00 0.03 0.03 28 1004.0
20260505233737 24 180 1.6 6.4 0.00 0.03 0.03 28 1004.0
20260505232737 25 180 1.6 8.0 0.00 0.03 0.03 28 1003.8
20260505231742 25 203 11.3 27.4 0.00 0.03 0.03 27 1004.0
20260505230757 25 180 3.2 8.0 0.00 0.03 0.03 26 1003.8
20260505225717 25 203 6.4 12.9 0.00 0.03 0.03 26 1003.7
20260505224716 25 203 3.2 9.7 0.00 0.03 0.03 26 1003.4
20260505223717 25 225 1.6 4.8 0.00 0.03 0.03 25 1003.5
20260505222717 25 180 0.0 3.2 0.00 0.03 0.03 26 1003.5
20260505221717 25 203 3.2 9.7 0.00 0.03 0.03 25 1003.5
20260505220716 26 203 6.4 11.3 0.00 0.03 0.03 24 1003.4
20260505215717 26 203 16.1 30.6 0.00 0.03 0.03 24 1003.3
20260505214737 26 248 3.2 6.4 0.00 0.03 0.03 25 1003.3
20260505213717 26 203 11.3 24.1 0.00 0.03 0.03 24 1003.3
20260505212721 26 203 8.0 24.1 0.00 0.03 0.03 25 1003.2
20260505211717 26 203 9.7 19.3 0.00 0.03 0.03 24 1003.1
20260505210717 27 203 11.3 24.1 0.00 0.03 0.03 24 1003.1
20260505205717 27 203 4.8 9.7 0.00 0.03 0.03 24 1003.0
20260505204717 28 180 11.3 20.9 0.00 0.03 0.03 23 1003.1
20260505203757 28 203 11.3 22.5 0.00 0.03 0.03 24 1003.0
20260505202716 28 225 6.4 12.9 0.00 0.03 0.03 22 1003.1
20260505201716 28 225 12.9 25.7 0.00 0.03 0.03 20 1003.1
20260505200717 28 203 19.3 35.4 0.00 0.03 0.03 17 1003.2
20260505195716 28 225 9.7 16.1 0.00 0.03 0.03 17 1003.3
20260505194756 28 203 9.7 17.7 0.00 0.03 0.03 17 1003.5
20260505193716 28 203 12.9 24.1 0.00 0.03 0.03 18 1003.6
20260505192717 28 225 8.0 19.3 0.00 0.03 0.03 18 1003.7
20260505191716 28 203 12.9 20.9 0.00 0.03 0.03 20 1003.8
20260505190716 28 203 14.5 29.0 0.00 0.03 0.03 20 1004.0
20260505185736 27 203 16.1 49.9 0.00 0.03 0.03 17 1004.1
20260505184716 27 248 14.5 29.0 0.00 0.03 0.03 18 1004.2
20260505183716 28 225 27.4 43.5 0.00 0.03 0.03 17 1004.3
20260505182736 28 293 4.8 12.9 0.00 0.03 0.03 21 1004.2
20260505181736 28 203 20.9 37.0 0.00 0.03 0.03 21 1004.4
20260505180716 27 180 11.3 30.6 0.00 0.03 0.03 26 1004.5
20260505175716 27 203 11.3 20.9 0.00 0.03 0.03 24 1004.7
20260505174716 27 203 11.3 17.7 0.00 0.03 0.03 27 1004.8
20260505173716 27 203 14.5 24.1 0.00 0.03 0.03 26 1005.0
20260505172716 27 225 17.7 35.4 0.00 0.03 0.03 26 1005.1
20260505171716 26 225 8.0 16.1 0.00 0.03 0.03 29 1005.0
20260505170716 27 180 9.7 17.7 0.00 0.03 0.03 27 1005.1
20260505165716 26 203 9.7 16.1 0.00 0.03 0.03 28 1005.1
20260505164736 26 203 14.5 22.5 0.00 0.03 0.03 29 1005.2
20260505163741 26 180 9.7 22.5 0.00 0.03 0.03 31 1005.4
20260505162716 26 180 11.3 25.7 0.00 0.03 0.03 32 1005.7
20260505161716 26 225 11.3 22.5 0.00 0.03 0.03 31 1005.8
20260505160716 25 225 3.2 8.0 0.00 0.03 0.03 33 1005.8
20260505152736 23 248 12.9 19.3 0.00 0.03 0.03 34 1006.4
20260505151716 23 225 17.7 30.6 0.00 0.03 0.03 36 1006.4
20260505150716 23 203 6.4 11.3 0.00 0.03 0.03 39 1006.5
20260505124718 16 203 1.6 8.0 0.00 0.03 0.03 60 1007.0
20260505123718 15 148 0.0 0.0 0.00 0.03 0.03 61 1007.1
20260505122718 14 180 0.0 0.0 0.00 0.03 0.03 65 1007.0
20260505121718 13 181 0.0 0.0 0.00 0.03 0.03 71 1007.1
20260505120718 12 299 0.0 0.0 0.00 0.03 0.03 71 1007.1
20260505115717 12 339 0.0 0.0 0.00 0.03 0.03 71 1007.2
20260505114717 12 12 0.0 0.0 0.00 0.03 0.03 70 1006.8
20260505113718 11 12 0.0 0.0 0.00 0.03 0.03 68 1006.8
20260505112717 11 12 0.0 0.0 0.00 0.03 0.03 67 1006.8
20260505111717 11 12 0.0 0.0 0.00 0.03 0.03 67 1006.6
20260505110717 11 12 0.0 0.0 0.03 0.03 0.03 66 1006.7
20260505101717 11 12 0.0 0.0 0.03 0.03 0.03 64 1006.5
20260505100737 11 12 0.0 0.0 0.00 0.00 0.00 64 1006.2
20260505095737 12 12 0.0 0.0 0.00 0.00 0.00 64 1006.0
20260505094717 12 12 0.0 0.0 0.00 0.00 0.00 64 1006.0
20260505093717 12 34 0.0 0.0 0.00 0.00 0.00 65 1006.0
20260505092718 12 30 0.0 0.0 0.00 0.00 0.00 64 1006.4
20260505091717 12 153 0.0 0.0 0.00 0.00 0.00 63 1006.3
20260505090717 11 203 1.6 4.8 0.00 0.00 0.00 62 1006.9
20260505085717 11 203 3.2 8.0 0.00 0.00 0.00 61 1006.9
20260505084737 10 203 4.8 8.0 0.00 0.00 0.00 60 1006.9
20260505083737 11 232 0.0 0.0 0.00 0.00 0.00 59 1006.4
20260505082717 11 231 0.0 0.0 0.00 0.00 0.00 58 1006.2
20260505081717 11 231 0.0 0.0 0.00 0.00 0.00 56 1006.2
20260505080717 11 231 0.0 0.0 0.00 0.00 0.00 56 1006.1
20260505075717 11 231 0.0 0.0 0.00 0.00 0.00 55 1006.0
20260505074717 12 232 0.0 0.0 0.00 0.00 0.00 55 1006.0
20260505073717 12 231 0.0 0.0 0.00 0.00 0.00 53 1006.1
20260505072717 12 230 0.0 0.0 0.00 0.00 0.00 53 1006.2
20260505071717 12 229 0.0 0.0 0.00 0.00 0.00 51 1006.1
20260505070717 12 229 0.0 0.0 0.00 0.00 0.00 51 1006.1
20260505065717 12 229 0.0 0.0 0.00 0.00 0.00 51 1006.1
20260505064717 12 223 0.0 0.0 0.00 0.00 0.00 51 1006.1
20260505063717 12 224 0.0 0.0 0.00 0.00 0.00 53 1006.1
20260505062717 11 232 0.0 0.0 0.00 0.00 0.00 54 1006.2
20260505061717 11 223 0.0 0.0 0.00 0.00 0.00 55 1006.3
20260505060737 11 223 0.0 0.0 0.00 0.00 0.00 55 1006.2
20260505055716 11 248 0.0 3.2 0.00 0.00 0.00 56 1006.3
20260505054717 11 240 0.0 0.0 0.00 0.00 0.00 57 1006.2
20260505053717 10 240 0.0 0.0 0.00 0.00 0.00 58 1006.2
20260505052717 10 240 0.0 6.4 0.00 0.00 0.00 58 1006.3
20260505051716 10 265 0.0 0.0 0.00 0.00 0.00 58 1006.2
20260505050716 10 265 0.0 0.0 0.00 0.00 0.00 57 1006.1
20260505041717 11 155 0.0 0.0 0.00 0.00 0.00 53 1006.0
20260505040736 11 155 0.0 0.0 0.00 0.00 0.00 52 1006.0
20260505035717 12 155 0.0 0.0 0.00 0.00 0.00 51 1006.0
20260505034737 12 155 0.0 0.0 0.00 0.00 0.00 50 1005.9
20260505033717 12 155 0.0 0.0 0.00 0.00 0.00 49 1006.0
20260505032737 12 155 0.0 0.0 0.00 0.00 0.00 49 1006.1
20260505031717 13 155 0.0 0.0 0.00 0.00 0.00 47 1006.1
20260505030717 13 155 0.0 0.0 0.00 0.00 0.00 47 1006.3
20260505025717 13 155 0.0 0.0 0.00 0.00 0.00 45 1006.3